Regional Weather Roundup
Issued by NWS San Angelo, TX

Home | Current Version | Previous Version | Text Only | Print | Product List | Glossary On
Versions: 1 2 3 4 5 6 7 8 9 10 11 12 13 14 15 16 17 18 19 20 21 22 23 24 25 26 27 28 29 30 31 32 33 34 35 36 37 38 39 40 41 42 43 44 45 46 47 48 49 50
000
ASUS44 KSJT 220758
RWRSJT
WEST CENTRAL TEXAS REGIONAL WEATHER ROUNDUP
NATIONAL WEATHER SERVICE SAN ANGELO TX
200 AM CST WED NOV 22 2017

NOTE: "FAIR" INDICATES FEW OR NO CLOUDS BELOW 12,000 FEET WITH NO
SIGNIFICANT WEATHER AND/OR OBSTRUCTIONS TO VISIBILITY.

TXZ049-054-064>066-071>073-076>078-098-099-113-114-127-128-139-140-
154-155-168>170-220900
...LOCATIONS ACROSS WEST CENTRAL TEXAS...

CITY           SKY/WX    TMP DP  RH WIND       PRES   REMARKS
SAN ANGELO     CLEAR     47  30  51 NE10      30.33S
ABILENE        CLEAR     43  31  62 N16       30.34S WCI  35
DYESS AFB      CLEAR     42  31  63 N12       30.34S WCI  36
JUNCTION       CLEAR     50  31  48 N8        30.28R
SWEETWATER     NOT AVBL
BROWNWOOD      NOT AVBL
COLEMAN        NOT AVBL
SONORA         NOT AVBL
OZONA          NOT AVBL
BRADY          NOT AVBL
$$

TEXAS PANHANDLE/OKLAHOMA PANHANDLE

CITY           SKY/WX    TMP DP  RH WIND       PRES   REMARKS
AMARILLO       CLOUDY    32  25  75 W7        30.39F WCI  26
BORGER         CLOUDY    34  25  69 SW6       30.39F WCI  29
CANADIAN       NOT AVBL
DALHART        NOT AVBL
DUMAS          NOT AVBL
GUYMON         NOT AVBL
HEREFORD       NOT AVBL
PAMPA          NOT AVBL
PERRYTON       NOT AVBL
$$

SOUTHERN PANHANDLE/SOUTH PLAINS/ROLLING PLAINS

CITY           SKY/WX    TMP DP  RH WIND       PRES   REMARKS
LUBBOCK        CLEAR     34  24  67 NW8       30.40R WCI  27
SNYDER         NOT AVBL
CHILDRESS      CLEAR     37  25  61 NE3       30.39F
SEMINOLE       NOT AVBL
$$

PERMIAN BASIN

CITY           SKY/WX    TMP DP  RH WIND       PRES   REMARKS
MIDLAND        CLEAR     42  26  53 N6        30.38R WCI  38
ODESSA           N/A     42  26  53 N8        30.39R WCI  37
WINK           CLEAR     42  26  53 N8        30.38R WCI  37
$$

FAR WEST/SOUTHWEST MOUNTAINS/TRANS PECOS

CITY           SKY/WX    TMP DP  RH WIND       PRES   REMARKS
ALPINE         NOT AVBL
DRYDEN         NOT AVBL
EL PASO        PTCLDY    53  23  31 NE5       30.35S
FORT STOCKTON  CLEAR     47  25  42 NE12      30.39R
GUADALUPE PASS NOT AVBL
MARFA          NOT AVBL
PECOS          NOT AVBL
$$

DALLAS/FORT WORTH METROPLEX

CITY           SKY/WX    TMP DP  RH WIND       PRES   REMARKS
DFW AIRPORT    CLEAR     51  29  42 N14       30.25R
FTW MEACHAM    CLEAR     49  30  48 N13       30.27R
DAL-EXECUTIVE  CLEAR     50  35  56 N10       30.24S
GRAND PRAIRIE  NOT AVBL
ADDISON        NOT AVBL
MESQUITE       NOT AVBL
LANCASTER      NOT AVBL
$$

NORTH CENTRAL TEXAS

CITY           SKY/WX    TMP DP  RH WIND       PRES   REMARKS
SHRMAN/DENISON NOT AVBL
GAINESVILLE    NOT AVBL
BRIDGEPORT     NOT AVBL
DENTON         CLEAR     45  27  49 N14       30.29R WCI  38
WAXAHACHIE     NOT AVBL
GRANBURY       NOT AVBL
$$

WESTERN NORTH TEXAS

CITY           SKY/WX    TMP DP  RH WIND       PRES   REMARKS
WICHITA FALLS  CLEAR     39  19  44 N13       30.36R WCI  31
VERNON         NOT AVBL
BRECKENRIDGE   NOT AVBL
COMANCHE       NOT AVBL
$$

CENTRAL AND SOUTH CENTRAL TEXAS

CITY           SKY/WX    TMP DP  RH WIND       PRES   REMARKS
AUSTIN/BERGSTM MOCLDY    59  47  64 N25       30.17R
WACO           CLEAR     52  37  56 N10       30.23S
HILLSBORO      NOT AVBL
TEMPLE         CLEAR     53  38  56 N9        30.22S
KILLEEN-GRAY   NOT AVBL
FORT HOOD      PTCLDY    52  37  58 N10       30.19F
GEORGETOWN     NOT AVBL
LAGO VISTA     NOT AVBL
SAN MARCOS     NOT AVBL
NEW BRAUNFELS  CLOUDY    61  47  59 N18G28    30.14R
RANDOLPH AFB   PTCLDY    60  47  62 N16G26    30.15R
SAN ANTONIO    MOCLDY    59  44  57 N16G28    30.17R
STINSON        CLEAR     62  47  57 N10       30.13R
PLEASANTON     NOT AVBL
LA GRANGE      NOT AVBL
GIDDINGS       NOT AVBL
$$

EAST TEXAS

CITY           SKY/WX    TMP DP  RH WIND       PRES   REMARKS
PARIS          NOT AVBL
CLARKSVILLE    NOT AVBL
TYLER          MOCLDY    52  43  71 N9        30.19S
LONGVIEW       PTCLDY    51  51 100 N7        30.17R
PALESTINE      NOT AVBL
NACOGDOCHES    NOT AVBL
$$

TEXAS HILL COUNTRY AND EDWARDS PLATEAU

CITY           SKY/WX    TMP DP  RH WIND       PRES   REMARKS
LLANO          NOT AVBL
HORSESHOE BAY  NOT AVBL
KERRVILLE      NOT AVBL
FREDERICKSBRG  NOT AVBL
ROCKSPRINGS    NOT AVBL
HONDO          CLEAR     59  38  45 N15       30.19R
UVALDE         NOT AVBL
DEL RIO        CLEAR     55  32  41 N6        30.27R
$$

SOUTHEAST TEXAS

CITY           SKY/WX    TMP DP  RH WIND       PRES   REMARKS
COLLEGE STN    CLOUDY    59  56  89 N15       30.15R
CALDWELL       NOT AVBL
CROCKETT       NOT AVBL
BRENHAM        NOT AVBL
HUNTSVILLE     CLOUDY    59  55  87 N7        30.14R
CONROE         MOCLDY    57  56  96 N6        30.12R
HOUSTON BUSH   MOCLDY    60  56  86 N12       30.09R
HOUSTON HOBBY  CLOUDY    60  56  86 NE15      30.07R
PERLAND        CLOUDY    63  56  78 NE10      30.09R
WHARTON        NOT AVBL
$$

THE UPPER TEXAS COAST

CITY           SKY/WX    TMP DP  RH WIND       PRES   REMARKS
ORANGE         NOT AVBL
PORT ARTHUR    CLOUDY    58  54  86 N15       30.07R
GALVESTON      CLOUDY    62  58  86 N20G25    30.06S
ANGLETON       CLOUDY    63  57  81 N13       30.06R
BAY CITY       NOT AVBL
$$

TEXAS COASTAL BEND, RIO GRANDE PLAINS DEEP SOUTH TEXAS

CITY           SKY/WX    TMP DP  RH WIND       PRES   REMARKS
VICTORIA       PTCLDY    64  58  80 N12G17    30.08R
BEEVILLE       NOT AVBL
ROCKPORT       LGT RAIN  65  63  93 N15G23    30.04R
PORT ARANSAS   NOT AVBL
PORT LAVACA    NOT AVBL
CORPUS CHRISTI PTCLDY    63  57  81 N17       30.04R
KINGSVILLE NAS NOT AVBL
COTULLA        CLEAR     57  43  59 N8        30.16R
LAREDO         NOT AVBL
BROWNSVILLE    CLEAR     70  67  90 NW7       29.97R
PORT ISABEL    CLEAR     68  67  96 N10       29.96R
HEBBRONVILLE   NOT AVBL
MCALLEN        PTCLDY    67  61  81 N17       30.02R
WESLACO        NOT AVBL
FALFURRIAS     NOT AVBL
EDINBURG       NOT AVBL
$$




USA.gov is the U.S. government's official web portal to all federal, state and local government web resources and services.